Wind_Speed
2 2 2 2 3 3 3 4 4 4 5 5 6 7 7 6 6 7 7 7 7 7 8 8 8 7 7 7 7 7 7 7 7 7 8 8 8 8 7 8 8 9 9
2 2 2 2 2 3 3 4 4 5 5 6 7 7 7 7 7 7 8 8 8 8 8 8 9 8 8 8 8 8 8 8 8 8 8 8 8 8 8 8 8 8 9
3 3 3 2 2 3 3 4 4 5 6 6 7 8 8 7 8 8 8 9 9 9 9 9 9 9 9 9 8 8 9 9 9 8 8 8 8 8 8 8 8 8 8
3 3 3 3 3 3 4 4 5 5 6 7 8 8 8 8 8 9 9 9 9 10 10 10 10 10 10 9 9 9 9 9 9 8 8 8 8 8 8 8 8 8 8
3 3 3 3 3 3 4 4 5 5 6 7 7 8 8 9 9 10 10 10 10 10 10 10 10 10 10 10 9 9 9 9 9 8 8 8 8 8 9 8 8 8 8
4 4 3 3 3 4 4 4 5 5 6 7 7 8 9 9 10 10 10 10 11 10 10 10 10 10 10 10 10 10 9 9 9 9 9 8 8 8 8 8 8 8 7
3 4 3 4 4 4 4 5 5 6 6 7 8 8 9 10 10 10 10 10 10 10 10 10 10 10 10 10 10 10 9 9 9 9 9 8 9 8 8 8 8 8 8
3 3 3 3 3 4 4 5 6 7 7 7 8 9 9 10 10 10 10 10 10 10 10 10 10 10 10 10 9 9 9 9 9 8 8 9 9 9 8 8 8 9 8
4 3 3 2 3 3 4 5 6 7 7 8 8 9 9 9 9 9 9 9 10 10 10 10 9 10 10 10 9 8 8 8 8 8 8 9 9 9 9 8 8 8 9
4 3 3 3 3 4 4 5 6 6 7 8 8 8 8 8 8 8 8 9 9 10 10 10 9 9 9 9 8 7 7 8 8 9 9 9 9 9 9 9 9 9 9
3 2 2 2 3 3 4 5 5 6 7 7 8 8 7 7 8 8 8 8 8 9 9 9 8 8 7 7 7 7 7 7 8 8 9 9 9 9 9 9 9 9 9
3 2 1 2 2 3 4 4 5 6 6 6 7 7 7 7 7 7 7 7 8 8 8 8 7 7 7 7 7 6 6 7 8 8 9 10 10 9 9 10 9 9 10
3 2 1 1 2 3 3 4 5 5 6 6 7 7 7 6 6 7 7 7 7 7 8 7 7 7 6 6 6 5 5 6 7 7 8 9 10 10 9 9 9 9 9
3 2 1 1 2 2 3 4 5 5 6 6 7 7 6 6 6 7 7 7 7 7 7 7 6 6 5 4 5 5 5 6 6 7 8 8 9 9 9 9 9 8 8
3 2 1 0 1 2 3 4 4 5 6 6 7 6 6 6 6 7 7 8 8 7 6 6 5 5 4 3 3 4 5 5 6 7 8 8 8 8 8 8 8 7 7
3 2 1 1 0 1 3 3 4 5 5 6 6 6 6 6 6 7 8 8 8 7 6 5 5 4 3 3 3 2 3 4 5 7 8 8 8 8 7 8 8 7 7
4 3 2 1 1 1 2 3 4 4 5 6 7 7 6 6 7 8 8 8 7 6 6 5 4 3 3 2 1 1 2 3 5 6 7 8 8 8 8 7 7 7 6
6 4 3 2 2 1 1 2 3 4 5 6 7 7 7 7 8 8 8 8 7 7 7 6 5 4 3 2 1 0 1 2 4 5 7 7 7 7 7 8 7 7 6
7 6 4 3 2 1 2 2 3 4 5 6 7 7 7 8 9 9 9 9 9 8 8 7 6 5 4 3 3 3 2 3 4 5 6 7 7 7 7 8 8 7 7
8 7 5 4 3 2 2 2 3 4 5 6 7 7 8 9 10 10 10 10 10 10 9 9 8 8 7 6 5 5 5 5 5 5 5 6 6 7 7 7 7 7 7
9 7 6 5 4 3 3 3 3 4 5 6 7 8 8 9 10 10 10 10 10 10 10 10 10 9 9 8 7 7 7 6 6 6 6 6 6 6 7 7 7 7 7
9 9 6 6 5 4 4 3 3 4 5 6 7 8 9 9 10 11 11 11 11 11 11 10 10 10 9 9 9 8 7 7 7 7 6 6 6 6 7 7 7 7 6
10 9 7 7 6 5 4 4 4 4 5 6 7 7 8 9 10 11 11 11 11 11 11 11 10 10 9 9 9 8 8 7 7 7 6 6 5 5 6 6 7 6 6
11 10 9 8 7 6 5 5 4 4 4 5 6 7 8 8 9 10 11 11 11 12 11 11 11 11 10 9 9 8 8 8 7 6 6 5 4 4 5 5 6 6 6
12 11 10 9 8 7 6 5 5 4 4 5 6 7 7 8 8 9 10 10 11 11 12 11 11 11 10 10 9 8 8 7 7 6 5 5 4 3 3 4 6 6 6
13 12 11 10 9 8 7 6 6 5 4 4 5 6 6 7 7 8 9 10 10 11 11 11 11 10 10 9 9 8 7 7 7 6 5 4 3 2 2 3 4 5 5
Wind_Direction
232 263 288 312 310 305 313 325 335 339 342 344 341 339 334 324 319 318 318 316 313 309 308 308 302 296 291 283 278 273 264 256 250 248 245 242 239 236 232 228 226 226 228
240 267 287 300 300 305 317 325 331 338 340 339 335 332 330 323 316 316 314 311 311 307 303 302 302 295 288 281 275 272 266 258 252 250 245 241 236 237 232 228 228 230 230
243 261 277 270 280 297 318 318 321 329 331 332 331 329 326 321 318 315 313 310 307 304 301 299 298 295 289 283 277 272 267 260 253 251 245 237 234 233 231 229 227 231 231
244 252 257 255 271 288 305 309 316 321 323 323 320 319 321 320 318 314 312 309 305 302 298 298 296 292 288 284 277 270 265 258 250 247 243 236 233 232 230 227 226 226 227
240 245 247 255 272 285 297 306 316 320 321 320 318 318 316 315 313 310 308 308 306 303 299 297 295 291 288 283 275 269 263 258 249 245 240 234 232 232 230 227 225 224 223
239 244 245 257 271 281 289 298 308 315 319 320 319 316 313 310 307 305 305 304 304 303 300 298 294 292 288 282 274 269 263 255 248 245 240 235 231 227 227 227 226 225 224
237 239 248 260 266 276 285 292 302 310 315 316 317 315 312 310 308 306 307 305 304 303 300 297 294 291 288 282 276 267 259 252 246 241 238 235 231 226 226 226 228 225 225
224 231 242 258 267 277 288 300 309 314 315 315 315 315 314 312 308 307 307 305 305 305 304 300 295 292 289 285 279 267 258 249 243 239 235 232 229 225 225 224 226 226 228
218 232 240 257 276 293 301 305 310 313 315 315 315 315 315 315 312 311 309 307 306 305 304 302 298 295 292 287 278 266 258 250 244 239 234 230 227 226 225 225 225 225 228
218 230 238 264 289 306 312 311 313 315 318 320 318 316 318 321 319 316 312 311 309 307 305 303 301 297 292 286 276 263 253 247 241 238 234 231 228 227 226 224 224 226 227
215 228 244 276 305 318 317 317 325 327 328 329 326 323 324 326 324 319 316 315 313 310 307 305 302 298 292 284 276 260 249 244 240 237 232 229 228 228 228 228 227 226 227
204 216 256 298 315 317 321 333 340 341 341 340 335 333 332 328 325 323 321 318 315 313 309 307 303 299 292 283 274 261 245 238 236 233 229 225 225 228 229 230 229 227 228
200 217 272 305 311 320 337 347 351 351 345 342 340 340 337 333 332 332 329 324 319 317 312 308 305 302 293 280 270 258 243 234 233 230 227 222 224 227 229 230 229 228 228
205 214 261 329 341 347 351 353 357 353 349 350 349 347 343 341 342 341 336 331 326 323 322 316 309 306 302 288 271 251 240 232 229 225 223 223 223 224 225 225 224 224 224
209 217 222 287 360 8 4 355 353 356 359 359 358 357 357 353 349 346 341 338 333 330 329 326 318 316 316 312 286 255 238 231 228 224 222 220 218 216 217 218 218 217 217
204 205 208 220 299 17 7 0 3 11 13 13 13 14 11 2 354 350 347 346 345 344 338 329 325 326 321 312 299 273 246 235 225 219 213 212 210 209 209 208 208 207 207
210 203 203 219 209 12 13 13 20 27 30 27 25 22 17 8 3 359 0 1 1 2 359 352 346 342 335 328 320 287 239 226 217 209 204 205 204 201 199 197 198 198 198
208 204 206 204 195 142 48 47 41 44 39 34 31 28 22 17 14 12 14 15 15 15 14 13 13 10 9 10 18 65 173 189 192 195 196 196 194 193 192 189 189 192 190
205 202 200 198 183 135 90 72 58 51 45 42 40 36 32 26 24 26 28 28 29 27 28 31 35 37 45 56 72 96 110 137 158 173 181 184 187 185 184 181 185 188 183
208 204 199 194 174 143 117 93 75 62 57 51 47 45 41 35 34 34 34 35 35 37 40 43 47 51 58 66 79 93 105 115 126 144 154 165 175 180 181 177 179 182 179
209 203 199 189 172 153 137 118 94 80 69 60 54 48 44 41 39 37 38 39 40 45 49 52 53 57 62 68 77 83 92 104 114 127 138 149 159 164 167 169 171 175 176
203 199 194 190 173 158 146 132 112 93 77 66 57 49 47 47 44 41 45 48 48 50 53 55 58 61 66 73 77 82 87 95 108 119 127 135 149 158 162 163 168 170 175
200 199 194 188 173 164 153 143 126 106 87 70 61 55 54 50 48 49 50 51 52 52 54 56 58 62 66 70 74 79 86 93 102 110 117 123 139 159 166 170 175 178 182
201 197 194 185 175 169 162 153 138 118 94 74 66 62 58 55 55 55 53 52 54 54 55 58 60 63 66 69 71 75 78 84 95 106 110 114 125 140 161 176 188 191 193
200 197 193 186 180 174 168 161 147 129 105 84 71 65 62 61 59 60 57 57 57 57 58 60 64 65 67 69 69 72 74 76 84 100 108 111 120 133 154 177 188 194 204
201 198 195 190 185 178 172 166 157 143 119 94 76 66 63 64 63 65 62 61 60 61 60 61 62 63 64 64 66 70 71 71 77 88 94 102 105 115 139 173 188 196 209
Height
5887 5886 5886 5886 5886 5886 5886 5885 5885 5884 5884 5884 5883 5883 5883 5883 5882 5882 5882 5882 5881 5881 5881 5881 5881 5881 5881 5882 5882 5883 5883 5884 5884 5885 5886 5886 5887 5888 5889 5890 5890 5891 5892
5886 5886 5886 5886 5886 5886 5885 5885 5885 5884 5884 5883 5883 5883 5882 5882 5882 5881 5881 5881 5881 5880 5880 5880 5880 5880 5880 5880 5881 5881 5882 5882 5883 5884 5885 5885 5886 5887 5888 5889 5890 5890 5891
5886 5886 5886 5886 5886 5885 5885 5885 5884 5884 5884 5883 5883 5882 5882 5881 5881 5880 5880 5879 5879 5879 5879 5879 5879 5879 5879 5879 5879 5880 5880 5881 5881 5882 5883 5884 5885 5886 5887 5888 5888 5889 5890
5885 5885 5885 5885 5885 5885 5885 5885 5884 5884 5883 5883 5882 5882 5881 5880 5880 5879 5879 5878 5878 5878 5878 5877 5877 5877 5877 5877 5878 5878 5879 5879 5880 5881 5882 5883 5884 5884 5885 5886 5887 5888 5889
5884 5885 5885 5885 5885 5885 5885 5884 5884 5883 5883 5882 5881 5881 5880 5880 5879 5878 5878 5877 5877 5876 5876 5876 5876 5875 5875 5875 5876 5876 5877 5877 5878 5879 5880 5881 5882 5883 5884 5885 5886 5887 5888
5884 5884 5884 5884 5884 5884 5884 5884 5883 5883 5882 5881 5881 5880 5879 5879 5878 5877 5876 5876 5875 5875 5874 5874 5874 5874 5873 5874 5874 5874 5875 5876 5877 5878 5879 5880 5881 5882 5883 5884 5885 5886 5887
5884 5884 5884 5884 5884 5884 5883 5883 5883 5882 5881 5881 5880 5879 5878 5877 5877 5876 5875 5874 5874 5873 5873 5872 5872 5872 5872 5872 5872 5872 5873 5874 5875 5876 5877 5878 5879 5880 5881 5882 5884 5885 5886
5883 5883 5883 5883 5883 5883 5883 5883 5882 5882 5881 5880 5879 5878 5877 5876 5875 5874 5874 5873 5872 5871 5871 5870 5870 5870 5870 5870 5870 5870 5871 5872 5873 5874 5875 5876 5877 5879 5880 5881 5882 5883 5885
5883 5883 5883 5883 5883 5883 5882 5882 5882 5881 5880 5879 5878 5877 5876 5875 5874 5873 5872 5872 5871 5870 5869 5869 5868 5868 5868 5868 5868 5868 5869 5870 5871 5872 5873 5874 5876 5877 5878 5880 5881 5882 5883
5882 5882 5883 5883 5883 5882 5882 5882 5881 5880 5879 5878 5877 5876 5875 5874 5873 5872 5871 5870 5869 5868 5867 5867 5866 5866 5866 5866 5866 5866 5867 5868 5869 5870 5872 5873 5874 5875 5877 5878 5879 5881 5882
5882 5882 5882 5882 5882 5882 5882 5881 5881 5880 5879 5877 5876 5875 5874 5873 5872 5870 5870 5869 5868 5867 5866 5865 5864 5864 5864 5864 5864 5864 5865 5866 5867 5868 5869 5871 5872 5873 5875 5876 5878 5879 5880
5881 5882 5882 5882 5882 5882 5881 5881 5880 5879 5878 5877 5876 5874 5873 5872 5871 5869 5868 5867 5866 5865 5864 5863 5863 5862 5862 5862 5862 5862 5863 5864 5865 5866 5868 5869 5870 5872 5873 5875 5876 5877 5879
5881 5881 5882 5882 5882 5882 5881 5881 5880 5879 5878 5876 5875 5874 5872 5871 5870 5869 5867 5866 5865 5864 5862 5862 5861 5860 5860 5860 5860 5861 5861 5862 5863 5864 5865 5867 5868 5870 5871 5873 5874 5876 5877
5880 5881 5881 5882 5882 5881 5881 5880 5880 5879 5877 5876 5874 5873 5872 5870 5869 5868 5866 5865 5864 5862 5861 5860 5859 5859 5858 5858 5859 5859 5860 5860 5861 5862 5863 5865 5866 5868 5869 5871 5872 5874 5875
5880 5880 5881 5881 5881 5881 5881 5880 5879 5878 5877 5876 5874 5873 5871 5870 5869 5867 5866 5864 5862 5861 5860 5859 5858 5857 5857 5857 5857 5857 5858 5859 5860 5861 5862 5863 5865 5866 5868 5869 5871 5873 5874
5879 5880 5881 5881 5881 5881 5881 5880 5879 5878 5877 5875 5874 5873 5871 5870 5868 5867 5865 5863 5861 5860 5858 5857 5857 5856 5856 5856 5856 5856 5856 5857 5858 5859 5860 5862 5863 5865 5866 5868 5870 5871 5873
5879 5880 5880 5881 5881 5881 5881 5880 5879 5878 5877 5876 5874 5873 5871 5870 5868 5866 5864 5862 5860 5859 5858 5856 5856 5855 5855 5855 5855 5855 5855 5856 5857 5858 5859 5860 5862 5864 5865 5867 5869 5870 5872
5879 5880 5880 5881 5881 5881 5880 5880 5879 5878 5877 5876 5874 5873 5871 5870 5868 5866 5864 5862 5860 5859 5857 5856 5855 5854 5854 5854 5854 5854 5854 5855 5856 5857 5858 5860 5861 5863 5864 5866 5868 5869 5871
5878 5879 5880 5880 5881 5881 5880 5880 5879 5879 5878 5876 5875 5873 5872 5870 5868 5866 5864 5862 5860 5859 5857 5856 5855 5854 5854 5854 5854 5854 5854 5855 5856 5857 5858 5859 5861 5863 5864 5866 5867 5869 5870
5877 5878 5879 5880 5880 5880 5880 5880 5880 5879 5878 5877 5875 5874 5872 5871 5869 5867 5865 5863 5861 5859 5858 5857 5855 5855 5854 5854 5854 5854 5854 5855 5856 5857 5858 5859 5861 5862 5864 5865 5867 5868 5870
5877 5878 5879 5879 5880 5880 5880 5880 5880 5880 5879 5878 5877 5875 5873 5872 5870 5868 5866 5864 5862 5861 5859 5858 5857 5856 5855 5855 5855 5855 5855 5856 5857 5858 5859 5860 5861 5862 5864 5865 5867 5868 5870
5875 5877 5878 5879 5880 5880 5881 5881 5881 5880 5879 5879 5878 5876 5874 5873 5871 5869 5867 5866 5864 5862 5861 5860 5859 5858 5857 5857 5857 5857 5857 5858 5858 5859 5860 5861 5862 5863 5865 5866 5867 5869 5870
5874 5876 5877 5878 5879 5880 5880 5881 5881 5881 5880 5880 5879 5877 5876 5874 5873 5871 5869 5868 5866 5864 5863 5861 5860 5860 5859 5859 5859 5859 5859 5859 5860 5860 5861 5862 5863 5864 5865 5866 5868 5869 5870
5873 5875 5876 5877 5878 5879 5880 5881 5881 5881 5881 5881 5880 5879 5878 5876 5874 5873 5871 5870 5868 5866 5865 5863 5862 5862 5861 5861 5860 5860 5861 5861 5861 5862 5863 5863 5864 5864 5865 5867 5868 5869 5870
5872 5874 5875 5877 5878 5879 5880 5881 5882 5882 5882 5881 5881 5880 5879 5878 5876 5875 5873 5872 5870 5869 5867 5866 5865 5864 5863 5863 5862 5862 5862 5862 5862 5863 5863 5864 5865 5865 5866 5866 5867 5868 5870
5870 5872 5874 5876 5877 5879 5880 5881 5882 5882 5882 5882 5882 5881 5880 5879 5878 5877 5876 5874 5873 5871 5870 5868 5867 5866 5866 5865 5864 5864 5864 5864 5864 5864 5864 5865 5865 5866 5866 5867 5867 5868 5869